Location: Albert Place
(40.7505°N, 111.9230°W)
Time: 05:54:43
(UTC+00:00)

Meteor 2-3 Rocket - Pass Details

Date: 13 December 2025
Orbit: 842 x 883 km, 81.2° (Epoch: 20 January)

Event Time Altitude Azimuth Distance (km) Brightness Sun altitude
Rises 12:50:08 0° 211° (SSW) 3,451 6.7 -20.7°
Reaches altitude 10° 12:52:46 10° 220° (SW) 2,511 5.9 -20.2°
Maximum altitude 12:58:00 36° 286° (WNW) 1,332 4.2 -19.3°
Drops below altitude 10° 13:03:13 10° 353° (N) 2,501 5.9 -18.3°
Sets 13:05:50 0° 2° (N) 3,435 6.7 -17.8°
